Miscellaneous Local Product
Issued by NWS Hastings, NE

Home | Current Version | Previous Version | Text Only | Print | Product List | Glossary Off
Versions: 1 2 3 4 5 6 7 8 9 10 11 12 13 14 15 16 17 18 19 20 21 22 23 24 25 26 27 28 29 30 31 32 33 34 35 36 37 38 39 40 41 42 43 44 45 46 47 48 49 50

935
AXUS43 KGID 291202
MISGRI

GID CWA HOURLY WEATHER ROUNDUP
NATIONAL WEATHER SERVICE HASTINGS NE
700 AM CDT FRI JUL 29 2016

NOTE: "FAIR" INDICATES FEW OR NO CLOUDS BELOW 12,000 FEET WITH NO
SIGNIFICANT WEATHER AND/OR OBSTRUCTIONS TO VISIBILITY.

...SOUTH CENTRAL NEBRASKA...

CITY           SKY/WX    TMP DP  RH WIND       PRES   REMARKS
GRAND ISLAND   MOCLDY    64  62  93 N5        30.07R
HASTINGS       CLOUDY    67  64  90 CALM      30.08R
ORD            CLOUDY    63  61  93 N3        30.08R
YORK           CLOUDY    64  64 100 CALM      30.06R
AURORA         CLOUDY    64  64  99 CALM      30.06R
LEXINGTON      PTCLDY    59  58  95 NW3       30.10R FOG
HOLDREGE       CLOUDY    63  61  94 CALM      30.08R
HEBRON         MOCLDY    63  61  95 CALM      30.05R

...NEBRASKA PANHANDLE...

CITY           SKY/WX    TMP DP  RH WIND       PRES   REMARKS
CHADRON        CLEAR     55  53  93 CALM      30.13S
ALLIANCE       FOG       51  51 100 CALM      30.14S VSB 3/4
SCOTTSBLUFF    CLEAR     58  56  93 CALM      30.15F
SIDNEY         CLEAR     55  54  96 SW3       30.17F

...WESTERN AND NORTH CENTRAL NEBRASKA...

CITY           SKY/WX    TMP DP  RH WIND       PRES   REMARKS
VALENTINE      NOT AVBL
AINSWORTH      RAIN      61  61 100 NE6       30.12R
ONEILL         CLOUDY    64  62  94 CALM      30.09S
BROKEN BOW     FOG       59  59 100 NW5       30.11R VSB 1
IMPERIAL       CLEAR     60  58  92 NE5       30.12S
NORTH PLATTE   FOG       60  58  92 CALM      30.11S VSB 1/4
MCCOOK         MOCLDY    58  56  93 SE3       30.10R

...EASTERN NEBRASKA...

CITY           SKY/WX    TMP DP  RH WIND       PRES   REMARKS
NORFOLK        CLOUDY    65  60  84 N6        30.07R
SO SIOUX CITY  CLEAR     63  59  87 N5        30.05R
TEKAMAH        CLOUDY    64  62  93 N7        30.04R
COLUMBUS       CLOUDY    66  57  72 N6        30.06R
ALBION         CLOUDY    64  62  93 N7        30.08R
OMAHA EPPLEY   CLOUDY    67  63  87 N8        30.02R
OFFUTT AFB     MOCLDY    68  64  88 NE8       30.00S
MILLARD        CLOUDY    68  65  89 CALM      30.02R
LINCOLN        MOCLDY    68  64  87 CALM      30.05R
NEBRASKA CITY  CLOUDY    67  67 100 CALM      30.04R
BEATRICE       CLOUDY    64  62  93 CALM      30.04R
FALLS CITY     PTCLDY    68  66  93 CALM      30.03R

...NORTHERN KANSAS...

CITY           SKY/WX    TMP DP  RH WIND       PRES   REMARKS
GOODLAND       CLOUDY    61  59  93 CALM      30.12R
HILL CITY      MOCLDY    65  64  97 NE3       30.09R FOG
NORTON         MOSUNNY   61  57  88 N5        30.09R FOG
SMITH CENTER   MOCLDY    64  63  94 CALM      30.07R
BELOIT         CLEAR     64  63  94 N5        30.03R
HAYS           PTCLDY    66  59  77 N10       30.05R
RUSSELL        MOCLDY    67  66  97 VRB3      30.04R
CONCORDIA      CLOUDY    65  63  93 N5        30.03R
SALINA         CLOUDY    70  67  90 CALM      30.03R
TOPEKA         CLOUDY    67  66  97 NW3       30.01R



USA.gov is the U.S. government's official web portal to all federal, state and local government web resources and services.